Date String (YYYY-MM-DD hh:mm:ss) UTC,Instrument flags,absolute air pressure of the measurement (hPa),sample flow rate (lpm),inlet stack bypass flow (lpm),air temperature of the measurement (°C),ambient temperature measured by the external sensor (°C),aerosol sample conditioner tube jacket temperature (°C),OPC LED temperature (°C),internal box temperature (°C),relative humidity of the measurement (%),span deviation,mass concentration of particles derived from Lorenz-Mie calculation of OPC scattering (μg/m³),mass concentration of particles derived from Lorenz-Mie calculation of OPC scattering (μg/m³),mass concentration of particles derived from Lorenz-Mie calculation of OPC scattering (μg/m³)
DateTimeUTC,F1_M11,P_M11,Q1_M11,Q2_M11,T1_M11,T2_M11,T3_M11,T4_M11,T5_M11,U1_M11,ZSPAN_M11,X2_M11,X0_M11,X1_M11
2023-06-05 07:00:00,SystemResetWarning,0835.4,5.00,000.00,030.4,026.0,000.0,038.7,031.6,29.7,0000.0,0002.57,0004.17,0002.23
2023-06-05 07:01:00,SystemResetWarning,0835.3,5.01,000.00,030.2,025.7,000.0,038.6,031.4,30.0,0000.0,0002.58,0003.64,0002.26
2023-06-05 07:02:00,SystemResetWarning,0835.5,5.01,000.00,030.1,025.9,000.0,038.6,031.3,30.2,0000.0,0002.63,0003.58,0002.30
2023-06-05 07:03:00,SystemResetWarning,0835.3,4.99,000.00,030.0,026.3,000.0,038.5,031.3,30.4,0000.0,0002.70,0003.71,0002.34
2023-06-05 07:04:00,SystemResetWarning,0835.3,5.00,000.00,030.0,026.6,000.0,038.5,031.3,30.6,0000.0,0002.82,0003.86,0002.46
2023-06-05 07:05:00,SystemResetWarning,0835.3,5.00,000.00,030.0,027.0,000.0,038.5,031.3,30.7,0000.0,0002.97,0004.03,0002.61
2023-06-05 07:06:00,SystemResetWarning,0835.3,5.00,000.00,030.0,027.3,000.0,038.5,031.4,30.7,0000.0,0003.14,0004.26,0002.77
2023-06-05 07:07:00,SystemResetWarning,0835.3,5.01,000.00,030.0,027.5,000.0,038.5,031.4,30.7,0000.0,0003.24,0004.50,0002.93
2023-06-05 07:08:00,SystemResetWarning,0835.3,5.00,000.00,030.0,027.7,000.0,038.5,031.4,30.8,0000.0,0003.37,0004.99,0003.10
2023-06-05 07:09:00,SystemResetWarning,0835.4,4.99,000.00,030.0,027.8,000.0,038.4,031.5,30.8,0000.0,0003.51,0005.32,0003.25
2023-06-05 07:10:00,SystemResetWarning,0835.3,5.00,000.00,030.0,028.0,000.0,038.4,031.5,30.8,0000.2,0003.61,0005.59,0003.34
2023-06-05 07:11:00,SystemResetWarning,0835.3,5.00,000.00,030.0,028.1,000.0,038.4,031.5,30.8,0002.7,0003.72,0005.82,0003.45
2023-06-05 07:12:00,SystemResetWarning,0835.4,4.99,000.00,030.0,028.2,000.0,038.4,031.5,30.8,0002.5,0003.80,0006.05,0003.49
2023-06-05 07:13:00,SystemResetWarning,0835.3,4.99,000.00,030.0,028.2,000.0,038.4,031.6,30.8,0002.6,0003.84,0006.10,0003.54
2023-06-05 07:14:00,SystemResetWarning,0835.4,5.00,000.00,030.0,028.3,000.0,038.4,031.6,30.8,0002.5,0003.93,0006.27,0003.63
2023-06-05 07:15:00,SystemResetWarning,0835.3,5.00,000.00,030.0,028.3,000.0,038.4,031.6,30.8,0002.3,0004.03,0006.44,0003.72
2023-06-05 07:16:00,SystemResetWarning,0835.2,5.00,000.00,030.0,028.4,000.0,038.4,031.6,30.9,0002.3,0004.10,0006.65,0003.78
2023-06-05 07:17:00,SystemResetWarning,0835.3,5.00,000.00,030.0,028.4,000.0,038.4,031.6,30.9,0002.2,0004.18,0006.82,0003.87
2023-06-05 07:18:00,SystemResetWarning,0835.2,5.00,000.00,030.0,028.4,000.0,038.4,031.6,31.0,0001.6,0004.31,0007.07,0004.00
2023-06-05 07:19:00,SystemResetWarning,0835.2,5.00,000.00,030.0,028.5,000.0,038.4,031.6,31.0,0001.1,0004.40,0006.87,0004.10
2023-06-05 07:20:00,SystemResetWarning,0835.3,5.00,000.00,030.1,028.5,000.0,038.4,031.6,30.9,0000.7,0004.42,0006.90,0004.13
2023-06-05 07:21:00,SystemResetWarning,0835.3,5.00,000.00,030.1,028.5,000.0,038.4,031.7,30.8,0000.3,0004.46,0006.88,0004.17
2023-06-05 07:22:00,SystemResetWarning,0835.3,5.00,000.00,030.1,028.5,000.0,038.4,031.7,30.8,0000.3,0004.49,0006.91,0004.20
2023-06-05 07:23:00,SystemResetWarning,0835.2,5.00,000.00,030.1,028.5,000.0,038.4,031.7,30.8,0000.3,0004.53,0006.94,0004.28
2023-06-05 07:24:00,SystemResetWarning,0835.2,5.01,000.00,030.1,028.5,000.0,038.4,031.7,30.7,0000.0,0004.61,0007.70,0004.36
2023-06-05 07:25:00,SystemResetWarning,0835.3,5.00,000.00,030.1,028.6,000.0,038.4,031.7,30.7,-000.3,0004.66,0007.77,0004.41
2023-06-05 07:26:00,SystemResetWarning,0835.3,4.99,000.00,030.1,028.6,000.0,038.4,031.7,30.7,-000.5,0004.68,0007.82,0004.43
2023-06-05 07:27:00,SystemResetWarning,0835.3,4.99,000.00,030.1,028.6,000.0,038.5,031.7,30.7,-000.4,0004.72,0007.87,0004.46
2023-06-05 07:28:00,SystemResetWarning,0835.3,5.01,000.00,030.1,028.6,000.0,038.5,031.7,30.6,-000.4,0004.72,0007.87,0004.46
2023-06-05 07:29:00,SystemResetWarning,0835.3,5.01,000.00,030.2,028.6,000.0,038.5,031.7,30.6,-000.2,0004.69,0007.82,0004.44
2023-06-05 07:30:00,SystemResetWarning,0835.3,5.01,000.00,030.2,028.6,000.0,038.5,031.7,30.5,-000.1,0004.66,0007.80,0004.41
2023-06-05 07:31:00,SystemResetWarning,0835.3,5.01,000.00,030.2,028.6,000.0,038.5,031.7,30.5,0000.2,0004.64,0007.79,0004.38
2023-06-05 07:32:00,SystemResetWarning,0835.3,5.00,000.00,030.2,028.7,000.0,038.5,031.8,30.5,0000.4,0004.67,0007.88,0004.38
2023-06-05 07:33:00,SystemResetWarning,0835.3,5.00,000.00,030.2,028.7,000.0,038.5,031.8,30.5,0000.5,0004.67,0007.90,0004.38
2023-06-05 07:34:00,SystemResetWarning,0835.3,4.99,000.00,030.2,028.7,000.0,038.5,031.8,30.4,0000.6,0004.68,0007.95,0004.36
2023-06-05 07:35:00,SystemResetWarning,0835.2,5.00,000.00,030.2,028.7,000.0,038.5,031.8,30.4,0000.6,0004.68,0007.45,0004.34
2023-06-05 07:36:00,SystemResetWarning,0835.2,5.00,000.00,030.2,028.7,000.0,038.5,031.8,30.4,0000.6,0004.65,0007.35,0004.32
2023-06-05 07:37:00,SystemResetWarning,0835.2,5.00,000.00,030.2,028.7,000.0,038.5,031.8,30.4,0001.0,0004.65,0007.39,0004.29
2023-06-05 07:38:00,SystemResetWarning,0835.2,5.01,000.00,030.2,028.7,000.0,038.5,031.8,30.4,0001.0,0004.61,0007.31,0004.27
2023-06-05 07:39:00,SystemResetWarning,0835.2,5.01,000.00,030.2,028.7,000.0,038.6,031.8,30.4,0001.2,0004.55,0007.14,0004.24
2023-06-05 07:40:00,SystemResetWarning,0835.3,5.00,000.00,030.2,028.7,000.0,038.6,031.8,30.4,0001.1,0004.50,0006.99,0004.20
2023-06-05 07:41:00,SystemResetWarning,0835.3,5.00,000.00,030.2,028.7,000.0,038.6,031.8,30.4,0001.3,0004.46,0006.96,0004.16
2023-06-05 07:42:00,SystemResetWarning,0835.3,5.00,000.00,030.2,028.7,000.0,038.6,031.8,30.4,0001.1,0004.46,0007.22,0004.15
2023-06-05 07:43:00,SystemResetWarning,0835.3,5.00,000.00,030.2,028.7,000.0,038.6,031.8,30.4,0000.6,0004.44,0007.20,0004.13
2023-06-05 07:44:00,SystemResetWarning,0835.3,4.99,000.00,030.2,028.7,000.0,038.6,031.8,30.4,0000.3,0004.42,0007.17,0004.10
2023-06-05 07:45:00,SystemResetWarning,0835.3,4.99,000.00,030.2,028.7,000.0,038.6,031.8,30.4,0000.3,0004.35,0006.97,0004.06
2023-06-05 07:46:00,SystemResetWarning,0835.3,5.00,000.00,030.2,028.7,000.0,038.6,031.8,30.5,0000.5,0004.29,0006.83,0004.02
2023-06-05 07:47:00,SystemResetWarning,0835.3,5.00,000.00,030.2,028.7,000.0,038.6,031.8,30.6,0000.3,0004.27,0006.84,0004.00
2023-06-05 07:48:00,SystemResetWarning,0835.3,5.02,000.00,030.2,028.7,000.0,038.6,031.8,30.6,0000.3,0004.22,0006.68,0003.97
2023-06-05 07:49:00,SystemResetWarning,0835.3,5.00,000.00,030.2,028.6,000.0,038.6,031.7,30.7,0000.1,0004.20,0006.65,0003.95
2023-06-05 07:50:00,SystemResetWarning,0835.3,5.00,000.00,030.2,028.6,000.0,038.6,031.7,30.8,-000.1,0004.24,0006.78,0003.95
2023-06-05 07:51:00,SystemResetWarning,0835.3,4.99,000.00,030.2,028.6,000.0,038.6,031.7,30.8,-000.3,0004.30,0006.96,0003.98
2023-06-05 07:52:00,SystemResetWarning,0835.3,4.99,000.00,030.2,028.6,000.0,038.6,031.8,30.8,-000.5,0004.33,0006.97,0004.00
2023-06-05 07:53:00,SystemResetWarning,0835.3,5.00,000.00,030.2,028.6,000.0,038.6,031.8,30.8,-000.1,0004.32,0006.68,0004.02
2023-06-05 07:54:00,SystemResetWarning,0835.3,5.01,000.00,030.2,028.6,000.0,038.6,031.7,30.8,0000.4,0004.34,0006.65,0004.05
2023-06-05 07:55:00,SystemResetWarning,0835.2,5.01,000.00,030.2,028.6,000.0,038.6,031.8,30.8,0001.1,0004.37,0006.68,0004.09
2023-06-05 07:56:00,SystemResetWarning,0835.3,5.01,000.00,030.2,028.6,000.0,038.6,031.8,30.8,0001.2,0004.43,0006.97,0004.16
2023-06-05 07:57:00,SystemResetWarning,0835.3,5.00,000.00,030.2,028.6,000.0,038.6,031.8,30.8,0001.0,0004.48,0007.03,0004.20
2023-06-05 07:58:00,SystemResetWarning,0835.3,4.99,000.00,030.2,028.6,000.0,038.6,031.8,30.8,0001.1,0004.55,0007.17,0004.27
2023-06-05 07:59:00,SystemResetWarning,0835.2,4.99,000.00,030.2,028.6,000.0,038.6,031.7,30.8,0001.1,0004.63,0007.34,0004.34
